WEATHER DATA

TODAY
Time Temp. Dewp. Hum. Bar.
00:06 11.7 -2.2 37 1019.7
00:16 11.7 -1.9 38 1019.4
00:26 11.7 -1.9 38 1019.4
00:36 11.7 -1.6 39 1019.1
00:46 11.6 -1.7 39 1019
00:56 11.6 -1.4 40 1019
01:06 11.5 -1.4 40 1018.9
01:16 11.4 -1.5 40 1018.9
01:26 11.3 -1.6 40 1018.8
01:36 11.3 -1.6 40 1018.7
01:46 11.2 -1.4 41 1018.6
01:56 11.2 -1.7 40 1018.5
02:07 11.2 -1.4 41 1018.2
02:16 11.1 -1.5 41 1018
02:26 11.2 -1.4 41 1017.9
02:37 11.1 -1.2 42 1017.7
02:47 11.1 -1.2 42 1017.7
02:56 11.1 -1.2 42 1017.6
03:06 11.1 -0.9 43 1017.6
03:17 11 -1.2 42 1017.5
03:27 11 -1 43 1017.5
03:37 10.9 -1 43 1017.1
03:47 10.9 -1 43 1017.1
03:57 10.8 -0.8 44 1017
04:07 10.8 -1.1 43 1017
04:17 10.7 -1.2 43 1016.8
04:27 10.6 -1.3 43 1016.8
04:37 10.6 -1 44 1016.8
04:47 10.5 -1.1 44 1016.5
04:58 10.2 -1.1 45 1016.4
05:07 10.1 -1.1 45 1016.5
05:17 9.9 -1.3 45 1016.4
05:27 9.8 -1.1 46 1016.2
05:38 9.8 -1.1 46 1016
05:47 9.8 -1.1 46 1015.9
05:57 9.8 -1.1 46 1015.8
06:08 9.8 -1.1 46 1015.8
06:18 9.8 -1.1 46 1016
06:27 9.8 -0.9 47 1015.8
06:37 10 -0.7 47 1015.7
06:48 10.1 -0.9 46 1015.8
06:58 10.2 -0.5 47 1015.8
07:07 10.3 -0.4 47 1015.7
07:18 10.5 -0.3 47 1015.7
07:28 10.7 -0.1 47 1015.7
07:38 11 -0.1 46 1015.7
07:48 11.3 0.1 46 1015.8
07:58 11.5 0 45 1015.7
08:08 11.8 0.3 45 1015.6
08:18 12.3 0.4 44 1015.7
08:29 12.8 0.5 43 1015.5
08:38 13.3 1 43 1015.6
08:48 13.8 0.8 41 1015.5
08:58 14.3 1.6 42 1015.4
09:09 14.8 1.7 41 1015.5
09:18 15.2 1.4 39 1015.4
09:28 15.5 1.3 38 1015.3
09:39 15.7 1.1 37 1015.2
09:49 16 1.3 37 1015.1
09:58 16.2 1.1 36 1015.1
10:09 16.6 1.1 35 1015.1
10:19 16.9 1.7 36 1015.2

DAY STATISTIC

2019-04-22
TEMPERATURE
AVERAGE
11.7
HIGH
16.9
10:19
LOW
9.8
05:27
PRESSURE
AVERAGE
1016.8
HIGH
1019.7
00:06
LOW
1015.1
09:49
DEWPOINT
AVERAGE
-0.6
HIGH
1.7
09:09
LOW
-2.2
00:06
HUMIDITY
AVERAGE
42
HIGH
47
06:27
LOW
35
10:09
TEMPERATURE (°C)
LOW
9.8
HIGH
16.9
AVERAGE
11.7
PRESSURE (hpa)
LOW
1015.1
HIGH
1019.7
AVERAGE
1016.8
DEVICE